This demonstration page uses our WeatherBlox Daily Observations layout. Learn more.

Hourly Observations for January 4, 2019

Temp ( °F °C ) Dew Point ( °F °C ) Humidity (%) Winds ( mph kmh ) Pressure ( in mb ) Visibility ( mi km ) Precip ( " mm )
12:15 am 00:15 Clear 32 -0.2 25 -4 76 76 W 6 9 29.97 1015 10 16.0934 0 0
12:35 am 00:35 Clear 31 -0.8 25 -4.1 79 79 W 7 11 29.97 1015 10 16.0934 0 0
12:55 am 00:55 Clear 30 -1 24 -4.2 79 79 W 7 11 29.97 1015 10 16.0934 0 0
1:15 am 01:15 Clear 29 -1.5 24 -4.7 79 79 W 7 11 29.97 1015 10 16.0934 0 0
1:35 am 01:35 Clear 28 -2.2 23 -5 81 81 WNW 8 13 30 1016 10 16.0934 0 0
1:55 am 01:55 Clear 30 -0.9 23 -5 74 74 WNW 8 13 29.94 1014 10 16.0934 0 0
2:15 am 02:15 Clear 30 -1.2 23 -5.2 75 75 W 6 9 29.94 1014 10 16.0934 0 0
2:35 am 02:35 Clear 29 -1.5 22 -5.4 75 75 WNW 5 7 29.97 1015 10 16.0934 0 0
2:55 am 02:55 Clear 29 -1.6 22 -5.4 76 76 NW 7 11 29.94 1014 10 16.0934 0 0
3:15 am 03:15 Clear 29 -1.5 23 -5 77 77 WNW 9 15 29.94 1014 10 16.0934 0 0
3:35 am 03:35 Clear 31 -0.8 23 -5 74 74 WNW 7 11 29.94 1014 10 16.0934 0 0
3:55 am 03:55 Clear 32 -0.2 24 -4.6 73 73 WNW 7 11 29.94 1014 10 16.0934 0 0
4:15 am 04:15 Clear 30 -1 23 -4.9 75 75 WNW 7 11 29.91 1013 10 16.0934 0 0
4:35 am 04:35 Clear 31 -0.6 23 -4.9 73 73 WNW 8 13 29.91 1013 10 16.0934 0 0
4:55 am 04:55 Clear 30 -1.2 23 -5 76 76 WNW 8 13 29.91 1013 10 16.0934 0 0
5:15 am 05:15 Clear 31 -0.6 24 -4.6 75 75 WNW 8 13 29.91 1013 10 16.0934 0 0
5:35 am 05:35 Clear 31 -0.7 24 -4.7 75 75 W 8 13 29.91 1013 10 16.0934 0 0
5:55 am 05:55 Clear 32 -0.1 24 -4.5 73 73 WNW 7 11 29.91 1013 10 16.0934 0 0
6:15 am 06:15 Clear 31 -0.5 24 -4.5 75 75 WNW 7 11 29.91 1013 10 16.0934 0 0
6:35 am 06:35 Clear 31 -0.5 24 -4.3 76 76 WNW 9 15 29.91 1013 10 16.0934 0 0
6:55 am 06:55 Clear 30 -1.2 24 -4.6 78 78 WNW 9 15 29.94 1014 10 16.0934 0 0
7:15 am 07:15 Clear 31 -0.7 24 -4.2 77 77 WNW 8 13 29.94 1014 10 16.0934 0 0
7:35 am 07:35 Clear 31 -0.6 25 -4 78 78 WNW 8 13 29.94 1014 10 16.0934 0 0
7:55 am 07:55 Clear 31 -0.6 25 -4.1 77 77 WNW 8 13 29.94 1014 10 16.0934 0 0
8:15 am 08:15 Sunny 30 -1 24 -4.3 79 79 WNW 7 11 29.97 1015 10 16.0934 0 0
8:35 am 08:35 Sunny 31 -0.5 25 -4 77 77 WNW 7 11 29.97 1015 10 16.0934 0 0
8:55 am 08:55 Sunny 31 -0.4 25 -4 77 77 NW 8 13 30 1016 10 16.0934 0 0
9:15 am 09:15 Sunny 32 -0.2 26 -3.5 79 79 NW 6 9 30 1016 10 16.0934 0 0
9:35 am 09:35 Sunny 33 0.3 27 -2.8 80 80 WNW 7 11 30 1016 10 16.0934 0 0
9:55 am 09:55 Sunny 35 1.5 28 -2.5 75 75 WNW 6 9 30 1016 10 16.0934 0 0
10:15 am 10:15 Sunny 36 2 28 -2.2 74 74 WNW 5 7 29.97 1015 10 16.0934 0 0
10:35 am 10:35 Sunny 37 2.9 28 -2 71 71 WNW 8 13 29.97 1015 10 16.0934 0 0
10:55 am 10:55 Sunny 38 3.5 29 -1.6 70 70 WNW 8 13 29.97 1015 10 16.0934 0 0
11:15 am 11:15 Sunny 39 3.9 29 -1.8 67 67 WNW 10 17 29.97 1015 10 16.0934 0 0
11:35 am 11:35 Sunny 39 4 29 -1.4 68 68 WNW 9 15 29.97 1015 10 16.0934 0 0
11:55 am 11:55 Sunny 40 4.3 30 -1 69 69 WNW 7 11 29.97 1015 10 16.0934 0 0
12:15 pm 12:15 Sunny 40 4.7 30 -0.9 67 67 W 8 13 29.94 1014 10 16.0934 0 0
12:35 pm 12:35 Sunny 42 5.3 31 -0.8 65 65 WNW 8 13 29.91 1013 10 16.0934 0 0
12:55 pm 12:55 Sunny 42 5.5 31 -0.4 66 66 NW 10 17 29.91 1013 10 16.0934 0 0
1:15 pm 13:15 Sunny 41 5 32 0 70 70 NW 9 15 29.91 1013 10 16.0934 0 0
1:35 pm 13:35 Sunny 42 5.3 32 0 69 69 W 7 11 29.91 1013 10 16.0934 0 0
1:55 pm 13:55 Sunny 42 5.6 32 0 68 68 WNW 6 9 29.91 1013 10 16.0934 0 0
2:15 pm 14:15 Sunny 43 5.9 33 0.3 68 68 WNW 7 11 29.91 1013 10 16.0934 0 0
2:35 pm 14:35 Sunny 42 5.8 32 0.1 67 67 WNW 8 13 29.91 1013 10 16.0934 0 0
2:55 pm 14:55 Sunny 43 6 33 0.6 69 69 W 7 11 29.91 1013 10 16.0934 0 0
3:15 pm 15:15 Sunny 44 6.5 33 0.7 67 67 NW 7 11 29.91 1013 10 16.0934 0 0
3:35 pm 15:35 Sunny 43 5.9 33 0.8 70 70 WNW 6 9 29.91 1013 10 16.0934 0 0
3:55 pm 15:55 Sunny 43 6.1 34 1 70 70 W 5 7 29.91 1013 10 16.0934 0 0
4:15 pm 16:15 Sunny 43 6.1 33 0.8 69 69 W 5 7 29.91 1013 10 16.0934 0 0
4:35 pm 16:35 Sunny 43 5.9 33 0.7 70 70 W 5 7 29.91 1013 10 16.0934 0 0
4:55 pm 16:55 Sunny 42 5.6 33 0.6 71 71 WNW 5 7 29.91 1013 10 16.0934 0 0
5:15 pm 17:15 Sunny 41 5.2 33 0.5 72 72 W 6 9 29.94 1014 10 16.0934 0 0
5:35 pm 17:35 Clear 40 4.2 33 0.3 76 76 W 6 9 29.97 1015 10 16.0934 0 0
5:55 pm 17:55 Clear 38 3.4 32 0 79 79 W 6 9 29.97 1015 10 16.0934 0 0
6:15 pm 18:15 Clear 39 4.1 32 0.1 75 75 WNW 6 9 29.97 1015 10 16.0934 0 0
6:35 pm 18:35 Clear 38 3.6 32 0 78 78 W 6 9 29.97 1015 10 16.0934 0 0
6:55 pm 18:55 Clear 38 3.4 32 -0.2 78 78 W 6 9 29.97 1015 10 16.0934 0 0
7:15 pm 19:15 Clear 37 2.5 31 -0.5 81 81 W 5 7 29.97 1015 10 16.0934 0 0
7:35 pm 19:35 Clear 38 3.2 31 -0.3 78 78 W 3 6 30 1016 10 16.0934 0 0
7:55 pm 19:55 Clear 38 3.1 32 -0.2 79 79 W 7 11 30 1016 10 16.0934 0 0
8:15 pm 20:15 Clear 38 3.1 31 -0.3 79 79 W 7 11 30 1016 10 16.0934 0 0
8:35 pm 20:35 Clear 38 3.2 32 -0.2 79 79 W 7 11 30 1016 10 16.0934 0 0
8:55 pm 20:55 Clear 39 3.8 32 0 77 77 WSW 5 7 30 1016 10 16.0934 0 0
9:15 pm 21:15 Clear 40 4.2 32 0 74 74 W 6 9 30 1016 10 16.0934 0 0
9:35 pm 21:35 Clear 40 4.2 31 -0.3 73 73 W 7 11 30 1016 10 16.0934 0 0
9:55 pm 21:55 Clear 38 3.6 31 -0.4 75 75 WSW 5 7 30 1016 10 16.0934 0 0
10:15 pm 22:15 Clear 39 3.7 31 -0.5 74 74 WSW 5 7 30 1016 10 16.0934 0 0
10:35 pm 22:35 Clear 40 4.6 31 -0.4 70 70 W 5 7 30 1016 10 16.0934 0 0
10:55 pm 22:55 Clear 40 4.4 31 -0.5 71 71 W 5 7 30 1016 10 16.0934 0 0
11:15 pm 23:15 Clear 41 5 32 -0.2 69 69 W 5 7 30 1016 10 16.0934 0 0
11:35 pm 23:35 Clear 41 5 32 -0.2 69 69 W 6 9 30 1016 10 16.0934 0 0
11:50 pm 23:50 Clear 39 3.9 31 -0.6 73 73 W 7 11 30 1016 10 16.0934 0 0

Powered by AerisWeather